Location: Unspecified
(8.6762°N, 0.0000°E)
Time: 00:45:55
(UTC+00:00)

S-56A Canister/Altair - Visible Passes

Search period start: 04 April 2026 00:00
Search period end: 14 April 2026 00:00
Orbit: 632 x 2485 km, 38.9° (Epoch: 28 March)

Date Brightness Start Highest point End Pass type
(mag) Time Alt. Az. Time Alt. Az. Time Alt. Az.
4 Apr 10.9 03:46:53 10° S 03:54:50 24° SE 04:04:44 10° E visible
5 Apr 10.9 03:13:32 11° SSE 03:19:30 18° SE 03:27:13 10° E visible
5 Apr 10.0 05:13:08 10° SW 05:24:14 73° SE 05:39:01 10° NE visible
6 Apr 11.0 02:41:08 11° SSE 02:44:13 13° SE 02:48:51 10° ESE visible
6 Apr 10.0 04:38:25 10° SW 04:48:38 63° SE 05:02:48 10° ENE visible
7 Apr 10.0 04:05:59 21° SSW 04:13:10 52° SE 04:26:26 10° ENE visible
8 Apr 10.0 03:33:31 30° S 03:37:49 43° SE 03:49:56 10° ENE visible
8 Apr 9.9 05:32:18 10° WSW 05:43:17 63° NW 05:57:54 10° NE visible
9 Apr 10.1 03:01:00 32° SSE 03:02:35 34° SE 03:13:16 10° ENE visible
9 Apr 9.6 04:58:18 15° WSW 05:07:31 72° NW 05:21:56 10° NE visible
10 Apr 10.5 02:28:26 26° ESE 02:28:26 26° ESE 02:36:24 10° E visible
10 Apr 9.4 04:25:43 30° SW 04:31:51 82° NW 04:45:54 10° NE visible
11 Apr 11.0 01:55:48 16° ESE 01:55:48 16° ESE 01:59:14 10° E visible
11 Apr 9.1 03:53:05 51° SW 03:56:20 87° SE 04:09:47 10° NE visible
12 Apr 9.0 03:20:24 73° SSE 03:20:57 74° SE 03:33:37 10° NE visible
12 Apr 10.2 05:17:40 10° W 05:27:20 39° NNW 05:40:14 10° NE visible
13 Apr 9.5 02:47:38 54° E 02:47:38 54° E 02:57:23 10° ENE visible
13 Apr 10.0 04:44:54 21° W 04:51:29 43° NNW 05:04:18 10° NE visible
